BEEAGLESAT (42736 NORAD) Tracking and Keplerian Element Data

This shows tracking and keplerian element data for the satellite.

Feedback or suggestion? Click here.




ElementValue
Catalog42736
NameBEEAGLESAT
Epoch Orbit10369
Epoch Day77.25444135
Epoch Year2019
RAAN23.5819
Inclination51.628
Eccentricity0.0004715
Argument of Perigee158.7323
Mean Anonmoly201.3881
Mean Motion15.93550271
Decay Rate0.00166127
L11 42736U 98067MR 19077.25444135 .00166127 21671-4 45840-3 0 9992
L22 42736 51.6280 23.5819 0004715 158.7323 201.3881 15.93550271103690

Live tracking and technical data element details for BEEAGLESAT (NORAD 42736). BEEAGLESAT can be tracked NOW for your location showing map with azimuth and elevation plus other details from your city location.

Track the satellite on the map from your city or location and see movement details for azimuth, elevation, latitude, longitude, range, height, and movement on the map or in text.







IsCatalogInMostPopularTable: catalog: 42736, numindb: 215
Update: records affected: 1



GetName: 42736 BEEAGLESAT

Hit Count: updated at: Wed, 20 Mar 2019 05:32:47 GMT